Погода в Тынде

Погода в Тынде : погода сейчас, прогноз погоды и архив. Всё, что Вы хотите узнать о погоде в Тынде!

Хотите узнать прогноз погоды в Тынде? Тогда Вам сюда: Погода в Тынде

Поиск расширенной информации на нашем сайте:

Полезная информация: Кризис туриндустрии! Читайте - турагентства в туле. Готовы выполнить Ваш проект.
вязаные шерстяные носки

Другие новости

Новости СМИ2

Главная страница сайта

Новости сайта

02.10.2013

Напоминаем, что на нашем новом сайте вы можете получить высокодетализированные прогнозы погоды по пунктам России, СНГ и мира (включающие важные для авиации метеовеличины, такие как направление и скорость ветра, видимость, явления погоды, количество и форма облачности, нижняя и верхняя граница облачности), а также ознакомиться с разнообразными материалами по авиационной метеорологии и подборкой полезных ссылок на эту тему.

Сайт Метеоцентр.Азия посвящён разработке технологий оптимизации авиаметеорологического обслуживания, включая проектирование и перспективное создание нескольких автоматизированных авиаметеорологических систем:
- система выпуска высокодетальных прогностических карт явлений погоды для нижнего воздушного пространства по России и ближнему зарубежью;
- система верификации прогнозов TAF (выпускаемых синоптиками официальных АМСГ РФ и ближнего зарубежья) и AUTOTAF (выпускаемых сайтом Метеоцентр.Азия) - выявление ошибок, онлайн-сопоставление с фактической погодой METAR, автоматическое внесение коррективов в прогнозы при резком отклонении фактической погоды от прогноза, подсчёт оправдываемости прогнозов по элементам и в целом;
- система обработки, анализа и отображения авиаметеорологической информации для применения провайдерами метеорологической информации.

Рекомендуем: На что обратить внимание при аренде кофемашины для кафе.

Погода в Тынде - сегодня

Время (UTC), дата Ветер
(°,м/с) 
Видим.   Явления Облачность Т
(°С)
Тd
(°С)
f(%) Тe
(°С)
Pmin
(гПа)
dP
(гПа)
Po
(мм)
O2
(г/м3)
Тmin Tmax R s Состояние
почвы
18 20.02.17 270 (З) н/о    н/о 
-25.7 -29.7 69 -29  1026.1  0.1  716  320           
21 20.02.17 270 (З) 20000 м    ясно 
-28.3 -31.6 73 -32  1027.1  0.2  716  324           
00 21.02.17 тихо ()   20000 м    9/0 верхняя 
[Ci fib]
-30.4 -33.9 71 -30  1027.9  0.2  716  327  -31.4      19  равномерный
сухой снег
100% 
03 21.02.17 240 (ЮЗ) 20000 м    8/0 верхняя 
[Ci fib]
-17.7 -26.3 47 -20  1023.3  -0.9  715  310           
06 21.02.17 080 (В) 20000 м    10/0 верхняя 
[Ci fib]
-10.8 -23.4 35 -11  1019.1  -2.1  714  301           
09 21.02.17 тихо ()   20000 м    10/0 средняя, верхняя 
[Ac trans|Ci fib]
-12.8 -22.7 43 -13  1019.3  -0.3  714  303           
12 21.02.17 тихо ()   20000 м    10/0 средняя, верхняя 
[Ac trans|Ci fib]
-17.6 -23 63 -18  1021.2  0.5  714  309    -9.7       
15 21.02.17 тихо ()   20000 м    8/0 средняя, верхняя 
[Ac trans|Ci fib]
-18.8 -23.5 66 -19  1021.6  0.1  714  311           
18 21.02.17 250 (З) 20000 м    8/0 средняя, верхняя 
[Ac trans|Ci fib]
-21.7 -25.1 74 -25  1022.7  0.2  714  314           
21 21.02.17 250 (З) 20000 м    8/0 средняя, верхняя 
[Ac trans|Ci fib]
-24.6 -27.4 78 -28  1024.3  0.7  715  318           
00 22.02.17 250 (З) 20000 м    3/0 верхняя 
[Ci fib]
-26.2 -29.2 76 -31  1025.2  0.4  715  320  -26.2      19  равномерный
сухой снег
100% 
03 22.02.17 240 (ЮЗ) 20000 м    1/0 верхняя 
[Ci sp]
-15 -22.6 52 -17  1021.5  -0.4  715  306           
06 22.02.17 330 (СЗ) 20000 м    8/6 600 м верхняя 
[Cu hum|Ci sp]
-9.8 -23.3 32 -12  1018.3  -1.7  713  300           
09 22.02.17 320 (СЗ) 20000 м    3/1 600 м верхняя 
[Cu hum|Ci fib]
-12 -23.7 37 -12  1019.3  0.4  714  302           
12 22.02.17 270 (З) 20000 м    ясно 
-16.2 -22.1 60 -19  1020.5  714  307    -9.1       
15 22.02.17 250 (З) 20000 м    ясно 
-21.2 -25.2 70 -26  1021.3  -0.5  713  313           
18 22.02.17 250 (З) 20000 м    ясно 
-25.2 -28.2 76 -30  1021.9  -0.5  713  318           
21 22.02.17 260 (З) 20000 м    ясно 
-27.7 -30.9 74 -31  1021.6  -1  712  321           
00 23.02.17 280 (З) 20000 м    10/0 верхняя 
[Cc]
-27.8 -30.9 75 -28  1020.5  -1  712  321  -29.1      19  равномерный
сухой снег
100% 
03 23.02.17 240 (ЮЗ) 20000 м    10/0 верхняя 
[Ci sp]
-17.2 -24.3 54 -21  1015.3  -2  710  307           
06 23.02.17 260 (З) 20000 м    10/0 верхняя 
[Cs]
-10 -21.6 38 -13  1011.4  -1.8  709  298           
09 23.02.17 230 (ЮЗ) 20000 м    8/0 средняя, верхняя 
[Ac lent|Ci ing]
-12.3 -22.9 41 -12  1011.9  0.1  709  300           
12 23.02.17 270 (З) 20000 м    4/0 средняя 
[Ac trans]
-14.5 -23.3 47 -18  1012.4  0.1  708  303    -9.5       
15 23.02.17 270 (З) 20000 м    ясно 
-17.7 -24 58 -23  1012.1  -1.1  708  306           
18 23.02.17 260 (З) 20000 м    ясно 
-19.8 -24.8 64 -24  1012.6  -0.1  708  309           
Время (UTC), дата Ветер
(°,м/с) 
Видим.   Явления Облачность Т
(°С)
Тd
(°С)
f(%) Тe
(°С)
Pmin
(гПа)
dP
(гПа)
Po
(мм)
O2
(г/м3)
Тmin Tmax R s Состояние
почвы

Для получения пояснительной информации подведите курсор к названию столбца.

ПОГОДА в Тынде - архив

Всё, что Вы хотите узнать о погоде в Тынде - удобно и подробно!

Выберите нужную дату (начиная с 1 января 2015* года) и нажмите кнопку "Найти".
Будут отображены архивные сводки погоды по пункту Тында, начиная с указанной даты.


Отображать данные в формате CSV (для использования в таблицах Excel)


Внимание! Наш архив погоды предназначен исключительно для личного некоммерческого использования в познавательных целях. Если Вам необходимы официальные справки о состоянии погоды (для производственных, юридических, коммерческих и т.п. целей), обращайтесь в органы Росгидромета.

*Примечание: данная дата относится к архиву по метеостанциям СССР (Россия, СНГ, Балтия).
Архив по метеостанциям Зарубежной Европы и Азии (кроме Китая) хранится 10 дней, по другим регионам земного шара (Китай, Африка, Америка, Австралия, Океания) - 1 день.

Тында - район местоположения метеостанции


Название, широта, долгота, высота метеостанции:
Тында 55.2°ш. 124.7°д. 528 м над ур. моря [Российская Федерация]

Дополнительная информация

В oтличие oт бoльшинства пoгoдных сайтoв мы публикуем пoдрoбную метеoинфoрмацию в детальнoм прoфессиoнальнoм фoрмате.

Характеристики температуры и влажнoсти вoздуха измеряются на высoте 2 м в тени вдали oт зданий и деревьев.
Скoрoсть ветра измеряется на высoте 10 м (на урoвне рoста челoвека скoрoсть ветра ниже в 1.5-2 раза). Если метеoстанция нахoдится в гoрoде или в лесу, тo скoрoсть ветра занижена на 2-4 м/с пo сравнению с oткрытым местoм. Скoрoсть ветра над акватoриями крупных рек и oзёр, а также на вершинах хoлмoв на 2-5 м/с выше, чем в oбычных услoвиях.
Атмoсфернoе давление в разных тoчках местнoсти мoжет значительнo oтличаться oт давления на метеoстанции, в зависимoсти oт услoвий рельефа (при пoдъёме на 10 м давление пoнижается примернo на 1 мм рт.ст.).